This is the latest recevied weather packets stored in our database for station/object SQ5AAG-2. If no packets are shown the sender has not sent any weather packets the latest 10 day(s).
| Time | Temp. | Humidity | Pressure | Rain* | Wind** | Luminosity | Snow |
|---|---|---|---|---|---|---|---|
| 1777350959 | 3.33° C | 60% | 1010.6 hPa | 0 mm | - | - | - |
| 1777350661 | 3.89° C | 60% | 1010.3 hPa | 0 mm | - | - | - |
| 1777350358 | 3.89° C | 60% | 1010.4 hPa | 0 mm | - | - | - |
| 1777350058 | 3.89° C | 61% | 1010.4 hPa | 0 mm | - | - | - |
| 1777349757 | 3.89° C | 61% | 1010.5 hPa | 0 mm | - | - | - |
| 1777349457 | 3.89° C | 63% | 1010.4 hPa | 0 mm | - | - | - |
| 1777349157 | 2.78° C | 65% | 1010.2 hPa | 0 mm | - | - | - |
| 1777348856 | 2.22° C | 66% | 1010.2 hPa | 0 mm | - | - | - |
| 1777348556 | 1.67° C | 66% | 1010.2 hPa | 0 mm | - | - | - |
| 1777348256 | 1.11° C | 68% | 1010.3 hPa | 0 mm | - | - | - |
| 1777347956 | 1.11° C | 69% | 1010.2 hPa | 0 mm | - | - | - |
| 1777347661 | -16.11° C | - | - | - | - | - | - |
| 1777347655 | 0.56° C | 68% | 1010.3 hPa | 0 mm | - | - | - |
| 1777347355 | -0.56° C | 67% | 1010.2 hPa | 0 mm | - | - | - |
| 1777347059 | -0.56° C | 67% | 1010.2 hPa | 0 mm | - | - | - |
| 1777346755 | -0.56° C | 67% | 1010 hPa | 0 mm | - | - | - |
| 1777346454 | -0.56° C | 66% | 1010 hPa | 0 mm | - | - | - |
| 1777346154 | -0.56° C | 66% | 1009.9 hPa | 0 mm | - | - | - |
| 1777345854 | -0.56° C | 66% | 1009.8 hPa | 0 mm | - | - | - |
| 1777345553 | -0.56° C | 65% | 1009.9 hPa | 0 mm | - | - | - |
| 1777345253 | 0° C | 65% | 1009.7 hPa | 0 mm | - | - | - |
| 1777344953 | 0° C | 65% | 1009.8 hPa | 0 mm | - | - | - |
| 1777344652 | 0° C | 65% | 1009.7 hPa | 0 mm | - | - | - |
| 1777344359 | - | - | - | - | - | - | - |
| 1777344352 | 0° C | 65% | 1009.6 hPa | 0 mm | - | - | - |
* Rain latest hour (hover to see other rain measurements)
** Current wind speed in m/s (hover to see current wind gust speed)